This is the latest recevied weather packets stored in our database for station/object AC5CM. If no packets are shown the sender has not sent any weather packets the latest 1 day(s).
| Time | Temp. | Humidity | Pressure | Rain* | Wind** | Luminosity | Snow |
|---|---|---|---|---|---|---|---|
| 1778005821 | 27.22° C | 79% | 1010.2 hPa | 0 mm | 0.45 m/s, 142° | - | - |
| 1778005518 | 27.78° C | 77% | 1010.3 hPa | 0 mm | 2.68 m/s, 279° | - | - |
| 1778005214 | 27.78° C | 77% | 1010.3 hPa | 0 mm | 0.89 m/s, 200° | - | - |
| 1778004911 | 27.78° C | 77% | 1010.3 hPa | 0 mm | 0.45 m/s, 160° | - | - |
| 1778004608 | 27.78° C | 76% | 1010.4 hPa | 0 mm | 3.58 m/s, 144° | - | - |
| 1778004303 | 27.78° C | 77% | 1010.5 hPa | 0 mm | 2.68 m/s, 168° | - | - |
| 1778003400 | 27.78° C | 77% | 1010.6 hPa | 0 mm | 0.89 m/s, 57° | - | - |
| 1778003097 | 27.78° C | 77% | 1010.6 hPa | 0 mm | 0.89 m/s, 57° | - | - |
| 1778002793 | 27.78° C | 78% | 1010.6 hPa | 0 mm | 0.89 m/s, 212° | - | - |
| 1778002489 | 27.22° C | 79% | 1010.6 hPa | 0 mm | 0 m/s | - | - |
| 1778002186 | 27.22° C | 80% | 1010.6 hPa | 0 mm | 0.89 m/s, 117° | - | - |
| 1778001885 | 26.67° C | 80% | 1010.6 hPa | 0 mm | 0.45 m/s, 193° | - | - |
| 1778001584 | 26.67° C | 81% | 1010.7 hPa | 0 mm | 0.45 m/s, 139° | - | - |
| 1778001281 | 26.67° C | 81% | 1010.9 hPa | 0 mm | 0.45 m/s, 200° | - | - |
| 1778000977 | 26.67° C | 81% | 1010.8 hPa | 0 mm | 0.89 m/s, 123° | - | - |
| 1778000674 | 26.67° C | 80% | 1010.9 hPa | 0 mm | 0.89 m/s, 115° | - | - |
| 1778000370 | 26.67° C | 80% | 1010.8 hPa | 0 mm | 1.79 m/s, 84° | - | - |
| 1778000066 | 26.67° C | 80% | 1010.7 hPa | 0 mm | 0.45 m/s, 100° | - | - |
| 1777999761 | 26.67° C | 80% | 1010.9 hPa | 0 mm | 0.89 m/s, 118° | - | - |
| 1777999458 | 27.22° C | 79% | 1010.7 hPa | 0 mm | 2.24 m/s, 141° | - | - |
| 1777999156 | 26.67° C | 80% | 1010.8 hPa | 0 mm | 0 m/s | - | - |
| 1777998855 | 27.22° C | 79% | 1010.6 hPa | 0 mm | 0.89 m/s, 129° | - | - |
| 1777998554 | 27.22° C | 80% | 1010.8 hPa | 0 mm | 1.34 m/s, 92° | - | - |
| 1777998249 | 26.67° C | 82% | 1010.8 hPa | 0 mm | 0 m/s | - | - |
| 1777997946 | 26.67° C | 81% | 1010.6 hPa | 0 mm | 0.89 m/s, 202° | - | - |
* Rain latest hour (hover to see other rain measurements)
** Current wind speed in m/s (hover to see current wind gust speed)